TimeCST,TemperatureF,Dew PointF,Humidity,Sea Level PressureIn,VisibilityMPH,Wind Direction,Wind SpeedMPH,Gust SpeedMPH,PrecipitationIn,Events,Conditions,WindDirDegrees,DateUTC
12:53 AM,42.1,37.0,82,30.19,10.0,NNE,5.8,-,N/A,,Clear,30,2013-01-21 06:53:00
1:53 AM,39.0,37.0,93,30.19,10.0,NNE,4.6,-,N/A,,Clear,30,2013-01-21 07:53:00
2:53 AM,36.0,36.0,100,30.20,10.0,North,3.5,-,N/A,,Clear,10,2013-01-21 08:53:00
3:53 AM,37.9,36.0,93,30.20,10.0,North,4.6,-,N/A,,Clear,10,2013-01-21 09:53:00
4:53 AM,37.0,35.1,93,30.20,10.0,NE,4.6,-,N/A,,Clear,40,2013-01-21 10:53:00
5:53 AM,37.0,34.0,89,30.22,10.0,NNE,8.1,-,N/A,,Clear,20,2013-01-21 11:53:00
6:53 AM,37.9,34.0,86,30.26,10.0,NNE,9.2,-,N/A,,Partly Cloudy,20,2013-01-21 12:53:00
7:53 AM,37.9,30.9,76,30.30,10.0,North,17.3,24.2,N/A,,Partly Cloudy,10,2013-01-21 13:53:00
8:53 AM,37.9,30.0,73,30.32,10.0,NNE,19.6,-,N/A,,Partly Cloudy,20,2013-01-21 14:53:00
9:53 AM,41.0,28.0,60,30.34,10.0,NNE,20.7,31.1,N/A,,Clear,20,2013-01-21 15:53:00
10:53 AM,42.1,28.0,58,30.35,10.0,NNE,21.9,27.6,N/A,,Clear,20,2013-01-21 16:53:00
11:53 AM,43.0,26.1,51,30.35,10.0,NNE,16.1,25.3,N/A,,Partly Cloudy,30,2013-01-21 17:53:00
12:53 PM,46.0,25.0,44,30.32,10.0,NNE,16.1,21.9,N/A,,Clear,20,2013-01-21 18:53:00
1:53 PM,46.9,27.0,46,30.31,10.0,NNE,12.7,-,N/A,,Clear,20,2013-01-21 19:53:00
2:53 PM,46.9,27.0,46,30.32,10.0,NNE,10.4,-,N/A,,Clear,20,2013-01-21 20:53:00
3:53 PM,46.9,26.1,44,30.32,10.0,NE,9.2,-,N/A,,Clear,40,2013-01-21 21:53:00
4:53 PM,45.0,28.9,53,30.31,10.0,NE,8.1,-,N/A,,Clear,40,2013-01-21 22:53:00
5:53 PM,41.0,30.0,65,30.31,10.0,NE,8.1,-,N/A,,Clear,40,2013-01-21 23:53:00
6:53 PM,39.0,28.0,65,30.31,10.0,NNE,8.1,-,N/A,,Partly Cloudy,20,2013-01-22 00:53:00
7:53 PM,37.9,27.0,65,30.31,10.0,NNE,10.4,-,N/A,,Clear,30,2013-01-22 01:53:00
8:53 PM,36.0,27.0,70,30.33,10.0,NNE,11.5,-,N/A,,Clear,30,2013-01-22 02:53:00
9:53 PM,35.1,26.1,70,30.35,10.0,NNE,11.5,-,N/A,,Clear,30,2013-01-22 03:53:00
10:53 PM,34.0,26.1,73,30.35,10.0,NNE,6.9,-,N/A,,Partly Cloudy,20,2013-01-22 04:53:00
11:53 PM,33.1,26.1,75,30.34,10.0,NNE,6.9,-,N/A,,Partly Cloudy,30,2013-01-22 05:53:00